Temperature
8 8 8 9 9 9 9 9 9 9 9 9 9 9 9 9 9 9 9 9 9 9 9 9 9 9 9 9 9 9 9 9 9 9 8 8 9 9 9 9 9 9 9
7 7 7 8 8 9 9 9 9 9 9 9 9 9 9 9 9 9 9 9 9 9 9 9 9 8 8 8 8 8 8 8 8 8 8 8 8 8 8 8 8 8 9
6 6 7 7 7 8 8 9 9 9 9 9 9 9 8 8 8 8 8 8 8 8 8 8 8 8 8 8 8 8 8 8 8 8 8 7 8 7 7 8 8 8 8
6 5 6 6 7 7 7 8 8 8 8 8 8 8 8 8 8 8 8 8 8 8 8 8 8 8 8 8 8 8 8 8 7 7 7 7 7 7 7 7 7 7 7
5 5 5 6 6 7 7 7 7 8 8 8 8 8 8 7 7 7 7 7 7 7 7 7 7 7 7 7 7 7 7 7 7 7 7 7 7 7 6 6 6 7 7
4 4 5 5 5 6 6 7 7 7 7 7 7 7 7 7 7 7 7 7 7 7 7 7 7 7 7 7 7 7 7 7 7 7 7 7 6 6 6 6 6 6 6
4 4 4 4 5 5 6 6 6 6 6 7 7 7 7 7 6 6 6 6 6 6 6 6 6 6 6 6 6 6 7 6 6 6 6 6 6 6 6 6 5 5 6
3 3 3 4 4 4 5 5 5 6 6 6 6 6 6 6 6 6 6 6 6 6 6 6 6 6 6 6 6 6 6 6 6 6 6 6 5 5 5 5 5 5 5
3 3 3 3 3 4 4 5 5 5 5 5 5 5 5 5 5 5 5 5 5 5 5 5 5 5 5 6 6 6 6 5 5 5 5 5 5 5 5 5 5 5 4
2 2 2 3 3 3 4 4 4 5 5 5 5 5 5 5 5 4 5 5 5 5 5 5 5 5 5 5 5 5 5 5 5 5 5 5 5 4 4 4 4 4 4
1 1 2 2 2 2 3 3 4 4 4 4 4 4 4 4 4 4 4 4 4 4 4 4 4 4 4 4 4 4 4 4 4 4 4 4 4 4 4 4 4 4 4
1 1 1 1 1 1 2 2 3 3 3 3 3 3 3 3 3 3 3 4 4 4 4 4 4 4 4 4 4 4 4 4 4 4 4 4 4 4 4 4 4 4 4
-0 -0 0 0 0 1 1 1 2 2 2 2 3 3 3 3 3 3 3 3 3 3 3 3 3 3 3 3 3 3 3 3 3 3 3 3 3 3 3 3 3 3 3
-1 -1 -1 -1 -0 -0 0 1 1 1 2 2 2 2 2 2 2 2 2 2 2 2 3 3 3 3 3 3 3 3 3 3 3 3 3 3 3 3 3 3 3 3 3
-2 -2 -2 -1 -1 -1 -0 -0 0 1 1 1 1 1 2 2 2 2 2 2 2 2 2 2 2 2 2 2 2 2 2 2 2 2 2 2 2 2 2 2 2 2 2
-2 -2 -2 -2 -2 -1 -1 -1 -0 0 0 1 1 1 1 1 1 1 1 1 1 1 1 1 1 2 2 2 2 1 1 1 2 2 2 2 2 2 2 2 2 2 2
-3 -3 -3 -2 -2 -2 -1 -1 -1 -0 -0 -0 -0 0 0 0 0 0 0 0 0 1 1 1 1 1 1 1 1 1 1 1 1 1 1 1 1 1 1 1 1 1 1
-3 -3 -3 -3 -2 -2 -2 -1 -1 -1 -1 -1 -1 -1 -1 -0 -0 -0 -0 -0 -0 0 0 0 0 0 0 0 0 0 0 1 1 1 1 1 1 1 1 1 1 1 1
-3 -3 -3 -3 -3 -3 -2 -2 -2 -2 -2 -2 -2 -1 -1 -1 -1 -1 -1 -1 -1 -1 -1 -1 -1 -0 -0 -0 -0 -0 -0 -0 -0 0 0 0 0 0 0 0 0 0 0
-4 -4 -4 -3 -3 -3 -3 -3 -2 -2 -2 -2 -2 -2 -2 -2 -2 -1 -1 -1 -1 -1 -1 -1 -1 -1 -1 -1 -1 -1 -1 -1 -1 -1 -1 -1 -0 -0 -0 -1 -1 -0 -0
-4 -4 -4 -4 -4 -3 -3 -3 -3 -3 -3 -3 -3 -2 -2 -2 -2 -2 -2 -2 -2 -2 -2 -2 -2 -2 -2 -2 -2 -1 -1 -1 -1 -1 -1 -1 -1 -1 -1 -1 -1 -1 -1
-4 -4 -4 -4 -4 -4 -4 -4 -4 -3 -3 -3 -3 -3 -3 -3 -3 -3 -3 -3 -3 -3 -3 -3 -2 -2 -2 -2 -2 -2 -2 -2 -2 -2 -2 -2 -2 -2 -2 -2 -2 -2 -2
-5 -5 -5 -4 -4 -4 -4 -4 -4 -4 -4 -3 -3 -3 -3 -3 -3 -3 -3 -3 -3 -3 -3 -3 -3 -3 -3 -3 -3 -3 -3 -3 -3 -3 -3 -2 -2 -2 -2 -2 -2 -2 -2
-6 -6 -5 -5 -5 -5 -5 -5 -5 -4 -4 -4 -4 -4 -4 -4 -4 -4 -4 -4 -4 -4 -4 -4 -4 -4 -4 -4 -3 -3 -3 -3 -3 -3 -3 -3 -3 -3 -3 -3 -3 -3 -3
-7 -6 -6 -6 -6 -5 -5 -5 -5 -5 -5 -5 -5 -5 -4 -4 -4 -4 -4 -5 -5 -5 -5 -5 -5 -5 -5 -4 -4 -4 -4 -4 -4 -4 -4 -4 -3 -3 -3 -3 -3 -3 -3
-7 -7 -7 -6 -6 -6 -6 -6 -6 -5 -5 -5 -5 -5 -5 -5 -5 -5 -5 -5 -5 -5 -5 -5 -5 -5 -5 -5 -5 -4 -4 -4 -4 -4 -4 -4 -4 -4 -4 -4 -4 -4 -4
Wind_Speed
5 3 4 4 4 4 4 4 5 4 4 4 4 4 4 3 3 2 3 4 4 5 4 3 3 3 3 4 4 3 3 2 2 2 1 1 1 0 0 1 2 2 2
4 3 3 3 3 4 4 4 5 5 5 5 4 4 4 3 3 2 3 3 4 5 4 4 3 3 3 4 4 4 2 2 2 2 2 1 1 1 1 0 1 2 2
4 3 4 3 3 4 4 4 5 5 5 5 4 4 3 3 3 3 2 3 3 4 4 4 4 3 3 4 4 5 4 3 2 2 2 2 3 1 1 1 1 2 2
4 3 3 3 4 3 4 4 4 4 4 5 5 6 5 5 4 4 3 3 3 3 4 4 4 4 3 4 4 4 3 4 4 2 1 1 1 2 2 2 2 2 3
3 3 3 3 3 2 2 3 3 3 4 5 6 6 5 4 4 4 4 3 3 3 3 4 4 4 4 4 4 4 4 4 5 3 2 1 1 2 3 3 3 3 3
4 3 1 1 1 2 2 2 3 3 3 4 4 5 6 5 5 5 4 3 2 2 2 3 3 3 3 4 4 4 5 5 5 4 4 3 3 3 3 3 3 3 3
4 4 3 1 1 1 2 2 3 3 3 3 3 4 4 5 6 5 4 4 2 2 2 2 2 3 3 3 3 4 5 5 5 5 4 4 4 3 3 3 3 3 3
5 4 3 2 1 1 1 2 2 2 3 3 3 3 3 3 3 3 3 3 3 2 2 2 2 2 3 3 3 3 4 4 4 4 5 4 4 3 4 4 4 4 4
6 5 4 3 2 1 1 1 2 2 3 3 3 3 3 3 3 3 2 2 2 2 2 1 1 1 2 2 3 2 3 3 3 3 3 3 3 3 4 4 5 5 5
6 5 4 4 3 2 2 1 2 3 2 3 3 2 3 3 3 3 2 2 1 1 2 1 1 1 1 2 2 2 2 2 2 2 3 3 3 3 3 4 4 5 5
6 5 5 4 3 3 2 2 2 3 3 2 2 3 3 3 3 2 2 2 1 1 2 2 2 1 2 2 2 2 2 3 2 2 3 3 3 3 3 3 3 4 4
6 5 5 4 4 4 3 3 2 3 2 2 3 3 3 3 3 2 2 2 1 1 1 2 2 2 2 2 2 2 3 3 3 3 3 3 2 3 3 3 4 4 4
6 5 5 4 4 4 4 3 2 2 2 2 3 3 3 2 2 2 1 1 1 1 1 2 2 2 2 2 2 2 3 3 3 3 3 3 3 3 3 3 4 3 3
7 6 5 5 4 4 4 3 3 2 2 2 2 2 2 2 2 1 1 1 1 1 1 1 2 2 2 2 2 2 2 2 2 2 3 3 3 4 3 3 4 3 3
8 7 6 5 5 5 4 4 3 2 2 2 2 1 1 1 2 2 1 1 1 0 0 1 1 1 1 1 1 1 1 2 2 2 2 2 2 2 2 2 3 3 3
8 7 7 6 5 5 4 4 3 2 1 1 1 1 1 1 1 1 1 1 1 1 1 0 0 1 1 1 1 1 2 2 2 2 2 1 2 2 2 2 3 3 4
9 7 7 6 5 5 4 3 3 2 1 1 1 1 1 1 1 1 1 1 1 1 1 1 0 0 0 0 1 1 2 2 2 2 2 1 1 1 2 1 2 2 2
9 7 7 6 5 5 4 3 2 2 2 1 1 1 1 1 1 1 0 0 1 1 0 1 1 1 1 0 1 1 2 2 2 2 2 2 2 1 2 1 2 2 3
9 7 6 6 5 4 4 3 2 2 2 2 2 2 1 1 0 0 0 0 0 1 1 1 1 1 1 1 0 1 1 1 1 1 2 2 2 1 2 2 2 3 3
8 7 6 5 5 5 4 2 2 2 2 2 2 2 1 1 1 1 1 0 0 0 1 1 1 1 1 1 1 1 1 1 1 1 1 2 2 2 1 2 3 4 4
8 7 6 5 5 5 4 3 2 3 3 3 2 2 2 1 1 1 1 0 0 0 1 1 2 2 2 1 1 1 1 1 2 2 2 2 1 2 2 3 3 4 4
9 7 6 5 5 5 4 3 3 4 4 3 3 2 2 2 1 1 1 1 0 0 0 1 1 2 2 2 1 2 2 2 2 2 2 2 2 3 3 3 3 3 3
8 7 6 5 5 5 4 4 4 4 4 3 3 3 3 2 2 1 1 1 1 0 1 1 1 2 2 2 2 2 2 3 2 2 3 3 3 3 3 2 2 3 3
8 7 6 5 5 5 5 4 4 4 3 3 3 2 2 2 2 2 1 1 1 1 1 1 2 2 2 2 2 2 2 2 2 2 2 3 3 3 3 2 2 2 2
7 7 6 6 6 6 6 5 4 4 3 3 3 2 2 2 2 2 2 2 2 3 3 3 3 3 3 3 4 3 3 3 3 3 2 2 2 2 2 2 2 2 2
7 6 6 6 6 6 6 5 4 3 3 3 2 2 2 2 2 2 2 4 3 4 5 4 4 3 4 5 5 5 5 4 4 3 3 3 2 3 3 3 3 2 3
Wind_Direction
254 235 218 204 196 197 201 201 204 207 201 192 187 183 185 178 174 168 173 175 171 169 170 174 177 182 182 180 177 173 159 155 152 142 117 40 57 86 233 207 200 181 170
263 244 212 194 194 196 200 202 205 205 202 198 193 191 183 179 171 165 166 171 173 173 174 176 177 187 183 181 178 174 173 180 187 180 180 199 208 213 293 271 222 211 188
262 247 218 205 201 203 203 202 204 203 201 197 184 171 162 155 163 172 168 174 179 173 174 182 178 186 187 191 191 191 190 188 196 200 202 200 217 229 208 228 233 236 220
289 268 230 213 208 207 201 197 192 191 191 189 187 182 184 183 186 179 172 169 170 166 169 179 182 186 192 197 196 201 203 191 193 194 254 277 235 211 214 213 227 244 238
317 293 250 219 205 190 186 184 176 176 180 187 191 190 190 187 181 174 168 165 161 160 167 174 181 189 196 199 196 197 201 202 198 196 202 214 255 242 232 241 242 243 245
344 332 303 209 160 141 154 169 171 171 172 181 186 190 186 182 179 176 172 169 165 160 167 175 181 190 197 200 203 203 205 204 200 197 203 205 205 207 222 240 255 255 253
354 357 3 11 71 115 133 154 161 161 163 169 177 184 183 182 183 181 178 173 174 179 189 182 185 188 196 202 205 205 210 204 203 204 212 218 220 213 214 223 244 258 263
6 4 3 6 18 52 110 144 153 152 147 154 156 162 168 173 177 177 174 178 185 190 194 195 191 191 191 195 200 207 214 211 211 212 212 214 213 211 210 218 223 242 248
6 1 3 13 17 28 49 125 132 127 134 141 138 138 149 151 150 156 163 168 171 173 176 182 192 197 190 188 191 203 210 208 214 217 217 219 216 214 220 218 220 232 242
3 360 1 8 13 18 41 70 86 97 111 128 126 121 125 133 140 137 137 147 144 145 154 168 185 192 192 185 188 204 208 202 214 221 221 225 220 215 216 220 231 236 243
358 358 358 1 11 23 42 66 77 79 78 85 104 108 105 108 119 125 129 135 138 138 152 175 179 186 197 196 190 196 198 200 209 218 220 229 230 217 220 224 227 229 233
355 0 2 8 13 16 22 40 65 76 75 79 84 97 98 108 111 113 115 126 155 159 167 185 182 190 202 204 204 207 208 206 211 215 213 224 224 220 221 221 227 233 234
355 0 7 10 12 13 16 26 43 60 73 80 83 93 97 101 108 111 108 116 136 167 177 184 189 197 203 203 207 215 210 217 225 222 220 223 219 222 223 221 225 228 232
1 359 358 359 3 8 10 15 25 42 64 77 77 80 92 94 92 90 95 108 131 148 198 198 198 204 203 198 202 211 212 220 235 237 234 232 228 231 227 226 226 224 224
358 356 352 352 354 356 358 1 7 26 54 82 82 65 67 79 77 67 60 63 74 100 197 205 200 202 213 200 194 206 214 223 227 239 244 244 238 240 236 230 226 222 221
344 344 344 344 345 344 343 345 352 4 32 71 75 61 57 63 69 64 54 57 55 64 70 68 200 209 205 169 199 219 214 223 228 236 257 273 242 224 231 228 224 225 225
337 336 334 330 329 329 331 329 339 9 28 43 60 75 63 51 56 93 87 59 46 52 58 33 43 5 282 181 211 235 233 224 231 240 246 262 267 243 234 229 223 234 253
338 333 331 328 328 330 331 333 353 20 24 20 22 47 43 26 17 68 90 46 36 21 348 338 350 356 354 3 217 230 236 228 237 249 249 245 251 251 232 242 254 256 259
336 332 331 330 331 335 335 348 15 26 25 6 353 353 358 336 338 356 349 331 334 350 336 315 309 328 337 4 252 241 223 217 257 271 270 262 261 240 222 233 246 256 263
344 343 341 343 346 348 351 1 17 18 4 343 332 336 327 309 326 321 319 299 241 302 332 329 317 316 324 355 347 286 234 234 267 288 286 285 269 257 235 244 250 254 258
346 349 348 350 349 350 353 357 8 356 346 340 335 340 343 346 338 335 340 349 72 42 349 339 335 331 323 328 331 310 270 251 257 268 279 281 277 267 268 264 261 262 260
345 349 349 350 352 355 353 353 351 345 345 346 346 345 344 352 343 347 345 347 57 78 355 349 341 336 331 332 328 333 312 286 268 271 277 276 267 259 261 264 269 270 268
341 344 345 346 350 354 353 344 341 342 343 348 348 346 348 350 348 339 325 323 320 307 311 312 308 317 320 330 337 323 321 310 285 275 278 281 284 276 268 267 266 259 256
339 340 343 345 345 348 347 342 340 341 342 343 347 348 351 350 351 344 328 321 315 309 306 299 297 303 306 311 317 315 310 310 300 281 268 268 273 271 278 271 259 253 252
335 337 337 337 337 339 339 343 344 341 336 338 345 349 352 347 347 346 335 319 309 300 296 292 287 284 290 302 309 304 297 294 285 286 276 266 260 257 261 261 257 252 252
330 335 337 336 335 336 337 341 341 336 331 333 340 342 341 341 339 341 352 2 347 343 334 323 311 304 300 303 299 302 301 297 276 277 261 250 250 250 259 264 265 260 257
Height
1490 1489 1489 1490 1491 1493 1495 1496 1498 1500 1501 1502 1503 1504 1506 1507 1508 1510 1511 1512 1513 1514 1515 1516 1517 1519 1520 1521 1523 1524 1525 1527 1528 1529 1531 1532 1532 1533 1535 1536 1537 1538 1540
1486 1485 1486 1487 1488 1489 1491 1492 1494 1496 1498 1499 1500 1501 1503 1504 1506 1507 1508 1510 1511 1512 1513 1514 1515 1516 1517 1519 1520 1522 1523 1524 1526 1527 1529 1530 1532 1531 1532 1533 1534 1536 1537
1483 1483 1483 1484 1485 1486 1487 1488 1490 1492 1494 1496 1497 1498 1500 1501 1503 1504 1505 1507 1508 1509 1510 1511 1512 1513 1515 1516 1517 1519 1520 1522 1523 1525 1527 1528 1528 1529 1530 1530 1532 1533 1534
1481 1481 1480 1481 1482 1483 1484 1485 1487 1489 1491 1492 1493 1495 1496 1497 1499 1501 1502 1504 1505 1506 1507 1509 1510 1511 1512 1514 1515 1516 1518 1519 1520 1521 1523 1525 1525 1527 1527 1528 1529 1529 1530
1480 1479 1478 1479 1479 1480 1481 1483 1485 1486 1487 1489 1490 1492 1493 1495 1497 1498 1499 1501 1502 1504 1505 1506 1507 1508 1510 1511 1512 1513 1514 1516 1517 1518 1519 1521 1522 1524 1525 1526 1527 1527 1527
1479 1478 1477 1478 1478 1478 1479 1481 1482 1483 1485 1486 1488 1489 1491 1492 1494 1495 1496 1498 1500 1501 1502 1503 1504 1505 1507 1508 1509 1510 1511 1512 1514 1515 1516 1518 1519 1520 1522 1523 1523 1524 1524
1479 1478 1477 1476 1476 1476 1477 1478 1480 1481 1482 1484 1485 1487 1488 1490 1491 1492 1494 1495 1497 1498 1499 1500 1501 1502 1504 1505 1506 1507 1508 1509 1510 1511 1513 1514 1516 1517 1518 1520 1520 1521 1521
1479 1478 1477 1476 1475 1475 1476 1477 1478 1479 1480 1482 1483 1484 1486 1487 1488 1490 1491 1493 1494 1495 1497 1498 1499 1500 1501 1502 1503 1504 1505 1506 1507 1508 1509 1510 1511 1513 1515 1516 1517 1517 1518
1480 1478 1477 1476 1475 1475 1475 1475 1476 1477 1479 1480 1481 1482 1484 1485 1486 1488 1489 1490 1492 1493 1494 1495 1496 1497 1497 1499 1500 1501 1501 1502 1503 1504 1505 1506 1507 1509 1510 1512 1513 1515 1514
1480 1479 1478 1476 1475 1475 1474 1475 1475 1476 1477 1479 1480 1481 1482 1483 1484 1486 1487 1488 1489 1490 1491 1492 1493 1494 1494 1495 1496 1497 1498 1499 1500 1501 1502 1502 1503 1505 1506 1507 1509 1510 1511
1481 1479 1478 1477 1475 1474 1474 1474 1474 1475 1476 1477 1478 1479 1480 1482 1483 1484 1485 1486 1487 1488 1489 1490 1490 1491 1492 1492 1493 1494 1495 1495 1496 1497 1498 1498 1500 1501 1502 1503 1504 1505 1506
1481 1480 1478 1477 1475 1474 1473 1473 1473 1474 1475 1476 1477 1478 1479 1480 1481 1482 1483 1484 1485 1485 1486 1487 1487 1488 1489 1490 1490 1491 1492 1492 1493 1493 1494 1495 1496 1497 1498 1499 1500 1501 1502
1482 1480 1478 1476 1475 1474 1473 1473 1473 1474 1475 1475 1476 1477 1478 1479 1480 1480 1481 1482 1482 1483 1483 1484 1484 1485 1486 1486 1487 1488 1488 1489 1489 1490 1491 1492 1493 1493 1494 1494 1495 1497 1497
1482 1480 1478 1477 1475 1474 1473 1473 1473 1473 1474 1475 1475 1476 1477 1477 1478 1479 1479 1480 1480 1480 1481 1481 1482 1482 1483 1483 1484 1485 1485 1486 1486 1487 1488 1488 1489 1490 1490 1491 1492 1493 1493
1483 1481 1479 1477 1475 1474 1473 1473 1473 1473 1473 1474 1474 1475 1476 1476 1476 1477 1477 1478 1478 1478 1479 1479 1479 1480 1480 1480 1481 1482 1482 1483 1483 1484 1485 1485 1486 1486 1487 1487 1488 1489 1489
1483 1481 1479 1477 1475 1474 1473 1472 1472 1472 1472 1473 1473 1474 1474 1475 1475 1475 1476 1476 1476 1476 1477 1477 1477 1477 1478 1478 1479 1479 1479 1480 1481 1481 1481 1482 1482 1483 1483 1484 1484 1485 1485
1483 1481 1478 1476 1475 1474 1473 1472 1471 1471 1472 1472 1472 1472 1473 1473 1474 1474 1474 1474 1474 1474 1474 1475 1475 1475 1475 1476 1476 1477 1477 1477 1478 1478 1478 1479 1479 1479 1480 1480 1480 1481 1481
1483 1480 1478 1476 1474 1473 1472 1472 1471 1471 1471 1471 1471 1471 1471 1472 1472 1472 1472 1472 1472 1472 1472 1472 1473 1472 1473 1473 1474 1474 1474 1474 1475 1475 1475 1475 1475 1476 1476 1476 1476 1476 1477
1483 1480 1478 1476 1474 1472 1471 1471 1470 1470 1470 1470 1470 1470 1470 1470 1470 1470 1470 1470 1470 1470 1470 1470 1470 1470 1470 1471 1471 1472 1471 1471 1472 1472 1472 1472 1472 1472 1473 1473 1472 1472 1472
1483 1480 1477 1475 1474 1472 1471 1470 1470 1469 1469 1469 1469 1469 1469 1468 1468 1468 1468 1468 1468 1468 1468 1468 1468 1468 1468 1468 1469 1469 1469 1468 1468 1469 1469 1469 1469 1469 1469 1469 1469 1468 1469
1482 1479 1477 1475 1473 1472 1471 1470 1469 1469 1469 1468 1468 1468 1467 1467 1467 1467 1467 1467 1466 1466 1466 1466 1466 1465 1466 1466 1466 1466 1466 1466 1466 1465 1465 1466 1466 1466 1466 1466 1466 1465 1466
1481 1479 1476 1474 1473 1472 1471 1469 1469 1469 1468 1468 1467 1466 1466 1466 1465 1465 1465 1465 1465 1464 1464 1464 1463 1463 1463 1464 1463 1464 1464 1464 1463 1463 1462 1463 1463 1463 1463 1463 1462 1462 1462
1480 1478 1476 1474 1472 1471 1470 1469 1468 1468 1467 1466 1466 1465 1465 1464 1464 1463 1463 1463 1463 1463 1462 1462 1462 1461 1461 1461 1461 1461 1461 1461 1460 1460 1459 1459 1459 1459 1459 1459 1459 1459 1458
1479 1477 1475 1473 1471 1470 1469 1468 1467 1466 1466 1465 1464 1464 1463 1463 1462 1462 1462 1461 1461 1461 1460 1460 1460 1459 1459 1459 1458 1458 1458 1458 1457 1457 1456 1456 1456 1456 1455 1455 1455 1455 1455
1478 1476 1474 1472 1470 1469 1468 1467 1466 1465 1464 1464 1463 1462 1462 1461 1461 1460 1460 1460 1459 1459 1459 1458 1458 1457 1456 1456 1456 1455 1455 1454 1454 1453 1453 1452 1452 1451 1451 1451 1451 1451 1451
1477 1475 1473 1471 1469 1468 1466 1465 1464 1464 1463 1462 1461 1461 1460 1460 1459 1459 1458 1457 1457 1457 1456 1456 1455 1454 1454 1453 1452 1452 1451 1451 1450 1450 1449 1448 1448 1448 1448 1448 1447 1447 1447